Regional Weather Roundup
Issued by NWS

Home | Current Version | Previous Version | Graphics & Text | Print | Product List | Glossary On
Versions: 1 2 3 4 5 6 7 8 9 10 11 12 13 14 15 16 17 18 19 20 21 22 23 24 25 26 27 28 29 30 31 32 33 34 35 36 37 38 39 40 41 42 43 44 45 46 47 48 49 50
000
ASUS43 KFSD 270710
RWRSD

WEATHER ROUNDUP FOR SOUTH DAKOTA
NATIONAL WEATHER SERVICE SIOUX FALLS SD
200 AM CDT TUE JUN 27 2017

NOTE: "FAIR" INDICATES FEW OR NO CLOUDS BELOW 12,000 FEET WITH NO
SIGNIFICANT WEATHER AND/OR OBSTRUCTIONS TO VISIBILITY.


SDZ001>005-009-010-012>017-270800-
NORTHWEST AND NORTH CENTRAL SOUTH DAKOTA

CITY           SKY/WX    TMP DP  RH WIND       PRES   REMARKS
BUFFALO          N/A     62  39  42 SE22G33   29.82F
FAITH            N/A     58  36  43 SE21G29   29.95F
MOBRIDGE       CLEAR     61  38  42 S16       29.98F
$$

SDZ012>016-024>037-041>051-057-063-072>074-270800-
SOUTHWEST AND SOUTH CENTRAL SOUTH DAKOTA

CITY           SKY/WX    TMP DP  RH WIND       PRES   REMARKS
RAPID CTY ARPT PTCLDY    56  40  55 SE12      29.97F
PIERRE         PTCLDY    56  40  55 SE10      30.02F
CUSTER         CLEAR     57  35  43 SW7       30.09F
ELLSWORTH AFB  PTCLDY    61  40  46 S18       29.96F
PHILIP         CLEAR     60  41  49 SE10      29.99F
PINE RIDGE     CLEAR     64  42  44 S24G35    29.99F
SPEARFISH      FAIR      70  41  35 NE5       29.90F
WINNER         FAIR      59  41  51 SE13      30.06F
$$

SDZ004>011-016>023-039-040-270800-
NORTHEAST SOUTH DAKOTA

CITY           SKY/WX    TMP DP  RH WIND       PRES   REMARKS
ABERDEEN       CLEAR     45  41  86 S10       30.06F
WATERTOWN      CLEAR     51  41  68 S3        30.10F
BROOKINGS      CLEAR     50  42  74 SE5       30.12F
SISSETON         N/A     51  42  71 S7        30.07F
$$

SDZ017-020-022-023-036>040-048>070-270800-
SOUTHEAST SOUTH DAKOTA

CITY           SKY/WX    TMP DP  RH WIND       PRES   REMARKS
SIOUX FALLS    CLEAR     49  46  90 CALM      30.12F
HURON          CLEAR     53  40  61 SE9       30.08F
CHAMBERLAIN    CLEAR     56  42  58 E10       30.07F
MITCHELL       CLEAR     53  44  71 S9        30.09F
YANKTON        CLEAR     53  43  68 CALM      30.12F
$$

ABBREVIATIONS USED IN REMARKS
   TC - TEMPERATURE IN CELSIUS
  WCI - WIND CHILL INDEX
   HX - HEAT INDEX
  VSB - VISIBILITY





USA.gov is the U.S. government's official web portal to all federal, state and local government web resources and services.